Date String (YYYY-MM-DD hh:mm:ss) UTC,Instrument flags,Ambient pressure (hPa),Sample flow (lpm),Bypass flow (lpm),Sample temperature (°C),Ambient temperature (°C),ASC tube jacket temperature (°C),LED temperature (°C),Box temperature (°C),Sample RH (%),Span deviation,Mass concentration (μg/m³),Mass concentration (μg/m³),Mass concentration (μg/m³)
DateTimeUTC,F1_M11,P_M11,Q1_M11,Q2_M11,T1_M11,T2_M11,T3_M11,T4_M11,T5_M11,U1_M11,ZSPAN_M11,X0_M11,X2_M11,X1_M11
2022-12-08 04:00:00,,0825.3,5.01,0.00,23.3,21.3,00.0,32.4,25.0,11.4,0000.0,0013.59,0004.98,0004.10
2022-12-08 04:01:00,,0825.3,5.01,0.00,23.3,21.3,00.0,32.4,24.9,11.4,0000.0,0013.64,0005.03,0004.16
2022-12-08 04:02:00,,0825.3,5.01,0.00,23.2,21.3,00.0,32.4,24.9,11.5,0000.0,0013.73,0005.03,0004.18
2022-12-08 04:03:00,,0825.3,5.00,0.00,23.2,21.2,00.0,32.4,24.9,11.5,0000.0,0014.48,0005.10,0004.21
2022-12-08 04:04:00,,0825.3,4.99,0.00,23.1,21.2,00.0,32.3,24.8,11.6,0000.0,0015.23,0005.13,0004.25
2022-12-08 04:05:00,,0825.3,4.99,0.00,23.1,21.2,00.0,32.3,24.8,11.6,0000.0,0015.83,0005.19,0004.28
2022-12-08 04:06:00,,0825.3,4.99,0.00,23.1,21.2,00.0,32.3,24.8,11.7,0000.0,0015.80,0005.24,0004.32
2022-12-08 04:07:00,,0825.4,5.00,0.00,23.0,21.1,00.0,32.2,24.7,11.7,0000.0,0016.24,0005.35,0004.39
2022-12-08 04:08:00,,0825.3,5.01,0.00,23.0,21.0,00.0,32.2,24.7,11.7,0000.0,0016.75,0005.46,0004.46
2022-12-08 04:09:00,,0825.3,5.00,0.00,23.0,21.0,00.0,32.2,24.6,11.7,0000.0,0016.62,0005.57,0004.56
2022-12-08 04:10:00,,0825.4,5.00,0.00,22.9,20.9,00.0,32.2,24.6,11.7,0000.0,0017.62,0005.70,0004.67
2022-12-08 04:11:00,,0825.3,5.00,0.00,22.9,20.8,00.0,32.1,24.5,11.8,0000.0,0017.67,0005.84,0004.79
2022-12-08 04:12:00,,0825.3,5.01,0.00,22.8,20.8,00.0,32.1,24.5,11.8,0000.0,0017.51,0005.94,0004.89
2022-12-08 04:13:00,,0825.4,5.01,0.00,22.8,20.8,00.0,32.0,24.4,11.8,0000.0,0017.30,0006.09,0004.99
2022-12-08 04:14:00,,0825.4,5.01,0.00,22.7,20.8,00.0,32.0,24.4,11.9,0000.0,0016.39,0006.12,0005.05
2022-12-08 04:15:00,,0825.3,5.00,0.00,22.7,20.8,00.0,32.0,24.3,11.9,0000.0,0015.81,0006.11,0005.08
2022-12-08 04:16:00,,0825.3,5.00,0.00,22.7,20.7,00.0,31.9,24.3,12.0,0000.0,0014.61,0006.08,0005.09
2022-12-08 04:17:00,,0825.3,5.00,0.00,22.7,20.7,00.0,31.9,24.3,12.0,0000.0,0013.81,0006.04,0005.11
2022-12-08 04:18:00,,0825.3,5.00,0.00,22.6,20.7,00.0,31.9,24.2,12.0,0000.0,0013.40,0006.00,0005.10
2022-12-08 04:19:00,,0825.3,5.00,0.00,22.6,20.6,00.0,31.8,24.2,12.1,0000.0,0012.41,0005.95,0005.08
2022-12-08 04:20:00,,0825.3,5.00,0.00,22.5,20.6,00.0,31.8,24.1,12.1,0000.0,0012.96,0005.89,0005.03
2022-12-08 04:21:00,,0825.3,4.99,0.00,22.5,20.6,00.0,31.8,24.1,12.1,0000.0,0012.22,0005.83,0004.99
2022-12-08 04:22:00,,0825.3,5.00,0.00,22.5,20.6,00.0,31.7,24.1,12.1,0000.0,0012.26,0005.72,0004.91
2022-12-08 04:23:00,,0825.3,5.00,0.00,22.4,20.6,00.0,31.7,24.1,12.1,0000.0,0013.03,0005.65,0004.86
2022-12-08 04:24:00,,0825.3,4.99,0.00,22.4,20.6,00.0,31.6,24.0,12.1,0000.0,0012.95,0005.61,0004.80
2022-12-08 04:25:00,,0825.3,5.00,0.00,22.4,20.6,00.0,31.6,24.0,12.2,0000.0,0012.49,0005.55,0004.76
2022-12-08 04:26:00,,0825.3,5.00,0.00,22.4,20.7,00.0,31.6,24.1,12.2,0000.0,0012.57,0005.52,0004.71
2022-12-08 04:27:00,,0825.2,5.00,0.00,22.4,20.7,00.0,31.6,24.0,12.2,0000.0,0012.73,0005.49,0004.68
2022-12-08 04:28:00,,0825.3,5.00,0.00,22.3,20.7,00.0,31.5,24.0,12.2,0000.0,0012.81,0005.49,0004.64
2022-12-08 04:29:00,,0825.3,5.01,0.00,22.3,20.7,00.0,31.5,24.0,12.2,0000.0,0012.72,0005.45,0004.59
2022-12-08 04:30:00,,0825.2,5.01,0.00,22.3,20.7,00.0,31.5,24.0,12.2,0000.0,0012.62,0005.37,0004.53
2022-12-08 04:31:00,,0825.2,5.00,0.00,22.3,20.7,00.0,31.5,24.0,12.2,0000.0,0012.32,0005.32,0004.49
2022-12-08 04:32:00,,0825.2,5.00,0.00,22.3,20.6,00.0,31.4,24.0,12.2,0000.0,0012.58,0005.27,0004.45
2022-12-08 04:33:00,,0825.2,5.00,0.00,22.3,20.6,00.0,31.4,24.0,12.2,0000.0,0012.34,0005.25,0004.43
2022-12-08 04:34:00,,0825.2,5.00,0.00,22.3,20.6,00.0,31.4,24.0,12.2,0000.0,0011.37,0005.17,0004.40
2022-12-08 04:35:00,,0825.2,5.00,0.00,22.2,20.5,00.0,31.4,23.9,12.2,0000.0,0011.88,0005.11,0004.37
2022-12-08 04:36:00,,0825.3,4.99,0.00,22.2,20.5,00.0,31.4,23.9,12.2,0000.0,0012.46,0005.13,0004.35
2022-12-08 04:37:00,,0825.2,4.99,0.00,22.2,20.5,00.0,31.4,23.8,12.2,0000.0,0013.10,0005.10,0004.33
2022-12-08 04:38:00,,0825.2,4.99,0.00,22.2,20.4,00.0,31.3,23.8,12.3,0000.0,0013.30,0005.10,0004.31
2022-12-08 04:39:00,,0825.2,5.00,0.00,22.1,20.4,00.0,31.3,23.8,12.3,0000.0,0013.43,0005.10,0004.29
2022-12-08 04:40:00,,0825.2,5.01,0.00,22.1,20.4,00.0,31.3,23.8,12.3,0000.0,0014.53,0005.11,0004.28
2022-12-08 04:41:00,,0825.2,5.01,0.00,22.1,20.5,00.0,31.3,23.8,12.3,0000.0,0015.07,0005.16,0004.29
2022-12-08 04:42:00,,0825.2,5.01,0.00,22.1,20.5,00.0,31.2,23.8,12.3,0000.0,0014.51,0005.14,0004.29
2022-12-08 04:43:00,,0825.2,5.00,0.00,22.1,20.5,00.0,31.2,23.8,12.3,0000.0,0014.92,0005.16,0004.29
2022-12-08 04:44:00,,0825.2,5.00,0.00,22.1,20.5,00.0,31.2,23.8,12.3,0000.0,0015.00,0005.15,0004.28
2022-12-08 04:45:00,,0825.2,5.00,0.00,22.1,20.5,00.0,31.2,23.8,12.3,0000.0,0015.54,0005.18,0004.27
2022-12-08 04:46:00,,0825.2,5.00,0.00,22.1,20.5,00.0,31.2,23.8,12.3,0000.0,0014.94,0005.16,0004.28
2022-12-08 04:47:00,,0825.2,5.00,0.00,22.1,20.5,00.0,31.2,23.8,12.3,0000.0,0014.26,0005.14,0004.28
2022-12-08 04:48:00,,0825.2,5.00,0.00,22.0,20.5,00.0,31.2,23.8,12.3,0000.0,0013.37,0005.16,0004.29
2022-12-08 04:49:00,,0825.2,5.00,0.00,22.0,20.5,00.0,31.1,23.7,12.3,0000.0,0013.71,0005.18,0004.30
2022-12-08 04:50:00,,0825.1,5.00,0.00,22.0,20.4,00.0,31.1,23.7,12.3,0000.0,0013.64,0005.17,0004.32
2022-12-08 04:51:00,,0825.1,5.00,0.00,22.0,20.4,00.0,31.1,23.7,12.3,0000.0,0013.19,0005.15,0004.33
2022-12-08 04:52:00,,0825.1,5.00,0.00,22.0,20.4,00.0,31.1,23.7,12.3,0000.0,0013.43,0005.15,0004.34
2022-12-08 04:53:00,,0825.1,5.00,0.00,22.0,20.4,00.0,31.1,23.7,12.3,0000.0,0014.83,0005.18,0004.37
2022-12-08 04:54:00,,0825.1,5.00,0.00,22.0,20.3,00.0,31.1,23.6,12.3,0000.0,0014.68,0005.20,0004.38
2022-12-08 04:55:00,,0825.1,5.00,0.00,21.9,20.3,00.0,31.1,23.6,12.3,0000.0,0014.74,0005.25,0004.40
2022-12-08 04:56:00,,0825.0,5.00,0.00,21.9,20.3,00.0,31.0,23.6,12.3,0000.0,0014.24,0005.27,0004.41
2022-12-08 04:57:00,,0824.9,5.00,0.00,21.9,20.3,00.0,31.0,23.6,12.4,0000.0,0014.62,0005.31,0004.43
2022-12-08 04:58:00,,0824.9,5.00,0.00,21.9,20.2,00.0,31.0,23.6,12.4,0000.0,0014.96,0005.34,0004.46
2022-12-08 04:59:00,,0824.9,5.00,0.00,21.9,20.2,00.0,31.0,23.5,12.5,0000.0,0014.92,0005.35,0004.49
